Weather History for Biloxi, MS

Change the Weather History Date:

Thursday, August 8, 2013

  Actual Average Record
Temperature  
Mean Temperature 82 °F -  
Max Temperature 90 °F 89 °F 101 °F (1962)
Min Temperature 76 °F 74 °F 68 °F (1975)
Cooling Degree Days 18    
Growing Degree Days 32 (Base 50)    
Moisture  
Dew Point 77 °F    
Average Humidity 80    
Maximum Humidity 94    
Minimum Humidity 65    
Precipitation  
Precipitation 0.17 in - - ()
Sea Level Pressure  
Sea Level Pressure 29.95 in    
Wind  
Wind Speed 4 mph (SE)    
Max Wind Speed 15 mph    
Max Gust Speed 25 mph    
Visibility 9 miles    
Events Rain , Thunderstorm    
Averages and records for this station are not official NWS values.
T = Trace of Precipitation, MM = Missing Value Source: NWS Daily Summary

Daily Weather History Graph

Daily Weather History Graph

Search for Another Location

Airport:

Trip Planner

Search our weather history database for the weather conditions in past years. The results will help you decide how hot, cold, wet, or windy it might be!

Date:

Astronomy

Aug. 08, 2013 Rise Set
Actual Time 6:18 AM CDT 7:43 PM CDT
Civil Twilight 5:52 AM CDT 8:09 PM CDT
Nautical Twilight 5:22 AM CDT 8:39 PM CDT
Astronomical Twilight 4:50 AM CDT 9:11 PM CDT
Moon 7:53 AM CDT (8/8) 8:36 PM CDT (8/8)
Length of Visible Light 14h 16m
Length of Day
13h 25m
Waxing Crescent, 3% of the Moon is Illuminated
Aug 8
Waxing Crescent
Aug 14
First Quarter
Aug 20
Full
Aug 28
Last Quarter
Sep 5
New

Hourly Weather History & Observations

Time (CDT) Temp. Heat Index Dew Point Humidity Pressure Visibility Wind Dir Wind Speed Gust Speed Precip Events Conditions
12:58 AM 84.6 °F 96.4 °F 78.6 °F 82% 29.95 in 10.0 mi SSE 3.5 mph - N/A   Clear
1:58 AM 84.6 °F 96.0 °F 78.1 °F 81% 29.95 in 10.0 mi SSE 2.3 mph - N/A   Scattered Clouds
2:08 AM 84.2 °F 96.1 °F 78.8 °F 84% 29.93 in 10.0 mi Calm Calm - N/A   Mostly Cloudy
2:13 AM 84.2 °F 96.1 °F 78.8 °F 84% 29.93 in 10.0 mi SSE 3.5 mph - N/A   Mostly Cloudy
2:18 AM 84.2 °F 96.1 °F 78.8 °F 84% 29.93 in 10.0 mi ESE 2.3 mph - N/A   Mostly Cloudy
2:28 AM 84.2 °F 94.1 °F 77.0 °F 79% 29.93 in 10.0 mi Calm Calm - N/A   Scattered Clouds
2:33 AM 84.2 °F 96.1 °F 78.8 °F 84% 29.93 in 10.0 mi Calm Calm - N/A   Scattered Clouds
2:58 AM 82.4 °F 92.4 °F 79.0 °F 89% 29.93 in 10.0 mi Calm Calm - N/A   Partly Cloudy
3:58 AM 80.4 °F 87.4 °F 78.3 °F 93% 29.93 in 10.0 mi Calm Calm - N/A   Scattered Clouds
4:58 AM 79.9 °F - 78.1 °F 94% 29.92 in 10.0 mi Calm Calm - N/A   Clear
5:58 AM 79.3 °F - 77.5 °F 94% 29.94 in 10.0 mi ENE 3.5 mph - N/A   Partly Cloudy
6:38 AM 78.8 °F - 77.0 °F 94% 29.94 in 10.0 mi East 4.6 mph - N/A   Mostly Cloudy
6:48 AM 80.6 °F 87.1 °F 77.0 °F 89% 29.94 in 10.0 mi ENE 6.9 mph - N/A   Scattered Clouds
6:58 AM 79.7 °F - 77.9 °F 94% 29.94 in 10.0 mi ENE 5.8 mph - N/A   Scattered Clouds
7:58 AM 82.4 °F 91.5 °F 77.9 °F 86% 29.96 in 10.0 mi ENE 5.8 mph - N/A   Clear
8:58 AM 85.6 °F 97.7 °F 78.3 °F 78% 29.97 in 10.0 mi East 6.9 mph - N/A   Clear
9:58 AM 87.6 °F 99.7 °F 77.4 °F 71% 29.98 in 10.0 mi ENE 6.9 mph - N/A   Clear
10:58 AM 89.6 °F 101.6 °F 76.5 °F 65% 29.99 in 10.0 mi East 8.1 mph - N/A   Clear
11:56 AM 89.6 °F 102.2 °F 77.0 °F 66% 29.97 in 10.0 mi South 11.5 mph - N/A Thunderstorm Thunderstorm
11:58 AM 89.8 °F 102.7 °F 77.0 °F 66% 29.98 in 10.0 mi SSE 10.4 mph - N/A Thunderstorm Thunderstorm
12:34 PM 78.8 °F - 73.4 °F 83% 29.99 in 10.0 mi ESE 15.0 mph 25.3 mph N/A Rain , Thunderstorm Light Thunderstorms and Rain
12:42 PM 77.0 °F - 73.4 °F 89% 29.99 in 9.0 mi East 12.7 mph - N/A Rain , Thunderstorm Light Thunderstorms and Rain
12:57 PM 77.0 °F - 73.4 °F 89% 29.97 in 2.5 mi SE 6.9 mph - N/A Rain , Thunderstorm Light Thunderstorms and Rain
12:58 PM 76.6 °F - 73.0 °F 89% 29.98 in 2.5 mi SSE 6.9 mph - 0.13 in Rain , Thunderstorm Light Thunderstorms and Rain
1:01 PM 77.0 °F - 73.4 °F 89% 29.97 in 2.5 mi SSE 5.8 mph - N/A Rain Light Rain
1:06 PM 77.0 °F - 73.4 °F 89% 29.97 in 5.0 mi SSE 5.8 mph - N/A Rain Rain
1:20 PM 80.6 °F 86.2 °F 75.2 °F 84% 29.96 in 10.0 mi SSE 4.6 mph - N/A   Scattered Clouds
1:58 PM 87.4 °F 99.8 °F 77.5 °F 72% 29.95 in 10.0 mi SSE 10.4 mph - 0.04 in   Partly Cloudy
2:58 PM 89.6 °F 101.6 °F 76.6 °F 65% 29.95 in 10.0 mi SSE 5.8 mph - N/A   Clear
3:58 PM 89.2 °F 101.8 °F 76.8 °F 67% 29.94 in 10.0 mi South 8.1 mph - N/A   Clear
4:58 PM 88.3 °F 101.1 °F 77.4 °F 70% 29.93 in 10.0 mi SE 6.9 mph - N/A   Clear
5:58 PM 88.7 °F 101.0 °F 77.0 °F 68% 29.93 in 10.0 mi SSE 8.1 mph - N/A   Clear
6:58 PM 86.9 °F 97.8 °F 76.3 °F 71% 29.93 in 10.0 mi SSE 6.9 mph - N/A   Partly Cloudy
7:58 PM 86.0 °F 96.0 °F 75.9 °F 72% 29.94 in 10.0 mi SSE 8.1 mph - N/A   Scattered Clouds
8:58 PM 85.6 °F 94.6 °F 75.4 °F 71% 29.95 in 10.0 mi SE 6.9 mph - N/A   Clear
9:58 PM 85.1 °F 94.5 °F 75.9 °F 74% 29.96 in 10.0 mi SE 4.6 mph - N/A   Clear
11:58 PM 84.6 °F 93.5 °F 75.7 °F 75% 29.95 in 10.0 mi SE 5.8 mph - N/A   Partly Cloudy